This is the latest recevied weather packets stored in our database for station/object IW3HBX-13. If no packets are shown the sender has not sent any weather packets the latest 10 day(s).
| Time | Temp. | Humidity | Pressure | Rain* | Wind** | Luminosity | Snow |
|---|---|---|---|---|---|---|---|
| 1777849569 | 15° C | 73% | 1017.6 hPa | 0 mm | - | 0 W/m² | - |
| 1777848847 | 15° C | 73% | 1017.8 hPa | 0 mm | - | 0 W/m² | - |
| 1777848487 | 15° C | 73% | 1017.8 hPa | 0 mm | - | 0 W/m² | - |
| 1777848127 | 15.56° C | 71% | 1017.8 hPa | 0 mm | - | 0 W/m² | - |
| 1777847767 | 15° C | 73% | 1017.8 hPa | 0 mm | - | 0 W/m² | - |
| 1777847409 | 15° C | 73% | 1017.8 hPa | 0 mm | - | 0 W/m² | - |
| 1777846687 | 15.56° C | 71% | 1017.7 hPa | 0 mm | - | 0 W/m² | - |
| 1777846331 | 15.56° C | 71% | 1017.8 hPa | 0 mm | - | 0 W/m² | - |
| 1777845971 | 15.56° C | 71% | 1017.8 hPa | 0 mm | - | 0 W/m² | - |
| 1777844891 | 16.11° C | 69% | 1017.8 hPa | 0 mm | - | 0 W/m² | - |
| 1777844527 | 16.11° C | 68% | 1017.7 hPa | 0 mm | - | 0 W/m² | - |
| 1777844167 | 16.11° C | 69% | 1017.8 hPa | 0 mm | - | 0 W/m² | - |
| 1777843807 | 16.11° C | 68% | 1017.7 hPa | 0 mm | - | 0 W/m² | - |
| 1777843089 | 16.11° C | 67% | 1017.6 hPa | 0 mm | - | 0 W/m² | - |
| 1777842728 | 16.11° C | 67% | 1017.6 hPa | 0 mm | - | 0 W/m² | - |
| 1777842369 | 16.67° C | 67% | 1017.7 hPa | 0 mm | - | 0 W/m² | - |
| 1777841287 | 16.67° C | 66% | 1017.5 hPa | 0 mm | - | 0 W/m² | - |
| 1777840927 | 16.67° C | 65% | 1017.4 hPa | 0 mm | - | 0 W/m² | - |
| 1777840567 | 17.22° C | 65% | 1017.5 hPa | 0 mm | - | 0 W/m² | - |
| 1777840207 | 17.22° C | 65% | 1017.5 hPa | 0 mm | - | 0 W/m² | - |
| 1777839487 | 17.22° C | 66% | 1017.5 hPa | 0 mm | - | 0 W/m² | - |
| 1777839127 | 17.22° C | 66% | 1017.6 hPa | 0 mm | - | 0 W/m² | - |
| 1777838768 | 17.22° C | 66% | 1017.4 hPa | 0 mm | - | 0 W/m² | - |
| 1777837691 | 17.78° C | 66% | 1017.4 hPa | 0 mm | - | 0 W/m² | - |
| 1777837327 | 17.78° C | 66% | 1017.3 hPa | 0 mm | - | 0 W/m² | - |
* Rain latest hour (hover to see other rain measurements)
** Current wind speed in m/s (hover to see current wind gust speed)